Location: The Stocker AstroScience Center
(25.7579°N, 80.3725°W)
Time: 11:20:43
(UTC-04:00)

ISS - All Passes

Search period start: 26 June 2016 00:00
Search period end: 06 July 2016 00:00
Orbit: 402 x 403 km, 51.6° (Epoch: 26 June)

Date Brightness Start Highest point End Pass type
(mag) Time Alt. Az. Time Alt. Az. Time Alt. Az.
26 Jun - 08:40:40 10° S 08:43:33 30° SE 08:46:27 10° ENE daylight
26 Jun - 10:18:07 10° WNW 10:20:01 14° NW 10:21:54 10° N daylight
26 Jun - 16:52:15 10° NNE 16:53:23 11° NE 16:54:32 10° ENE daylight
26 Jun - 18:26:51 10° WNW 18:29:58 42° SW 18:33:03 10° SSE daylight
27 Jun - 07:49:26 10° SSE 07:50:58 13° SE 07:52:31 10° E daylight
27 Jun - 09:24:15 10° WSW 09:27:09 29° NW 09:30:03 10° NNE daylight
27 Jun - 17:34:02 10° NW 17:37:17 70° NE 17:40:31 10° SE daylight
28 Jun - 08:31:08 10° SW 08:34:22 74° NW 08:37:37 10° NE daylight
28 Jun - 16:41:37 10° NNW 16:44:30 28° NE 16:47:21 10° ESE daylight
28 Jun - 18:19:00 10° W 18:20:41 13° SW 18:22:24 10° SSW daylight
29 Jun - 07:38:37 10° SSW 07:41:41 39° SE 07:44:45 10° ENE daylight
29 Jun - 09:16:56 10° WNW 09:18:14 12° NW 09:19:31 10° NNW daylight
29 Jun - 15:49:48 10° N 15:51:35 14° NE 15:53:23 10° ENE daylight
29 Jun - 17:25:08 10° WNW 17:28:04 32° SW 17:31:01 10° SSE daylight
30 Jun - 06:46:53 10° SSE 06:49:02 16° SE 06:51:11 10° E daylight
30 Jun - 08:22:37 10° W 08:25:18 23° NW 08:27:59 10° NNE daylight
30 Jun - 16:32:07 10° NW 16:35:23 87° SW 16:38:38 10° SE daylight
01 Jul - 07:29:16 10° SW 07:32:27 55° NW 07:35:40 10° NNE daylight
01 Jul - 15:39:33 10° NNW 15:42:35 36° NE 15:45:37 10° ESE daylight
01 Jul - 17:18:06 10° WSW 17:18:42 10° SW 17:19:18 10° SW daylight
02 Jul - 06:36:32 10° SSW 06:39:41 53° SE 06:42:53 10° NE daylight
02 Jul - 14:47:27 10° N 14:49:41 17° NE 14:51:54 10° E daylight
02 Jul - 16:23:21 10° WNW 16:26:04 24° SW 16:28:46 10° S daylight
03 Jul - 05:44:28 10° S 05:47:00 21° SE 05:49:32 10° ENE visible
03 Jul - 07:20:55 10° W 07:23:20 19° NW 07:25:45 10° N daylight
03 Jul - 15:30:07 10° NW 15:33:21 64° SW 15:36:34 10° SSE daylight
04 Jul - 06:27:20 10° WSW 06:30:25 41° NW 06:33:32 10° NNE daylight
04 Jul - 14:37:24 10° NNW 14:40:32 46° NE 14:43:41 10° ESE daylight
05 Jul - 05:34:22 10° SW 05:37:36 73° SE 05:40:51 10° NE visible
05 Jul - 13:45:06 10° N 13:47:38 21° NE 13:50:10 10° E daylight
05 Jul - 15:21:32 10° WNW 15:23:56 19° SW 15:26:20 10° S daylight
